sat.trackr.live / text

‹ back to catalog

ONEWEB-0428

NORAD 51629 · 2022-012H

PAYLOAD ACTIVE UNKNOWN

§ Identity

Operator
Country
UK
Launch date
2022-02-10
Launch site
FRGUI
Launch vehicle
Mass (kg)
RCS (m²)

Purposes: comms

External: N2YO · Heavens-Above · Gunter

§ Orbital elements

Epoch: 2026-09-20T01:50:30.837984Z

Period
109.89 min
Inclination
87.8899°
Eccentricity
0.0001745
Mean motion
13.10374445 rev/d
Perigee alt
1,220.4 km
Apogee alt
1,223.0 km
Semi-major
7,599.8 km
B*
1.7944e-3
RAAN
17.3809°
Arg perigee
100.6101°
Mean anomaly
259.5223°
Rev number
22,171

§ Raw data

ONEWEB-04281 51629U 22012H   26263.07674581  .00000639  00000+0  17944-2 0  99912 51629  87.8899  17.3809 0001745 100.6101 259.5223 13.10374445221711

JSON: /api/v1/satellites/51629 · /tle

For live sub-satellite position, see the globe view (requires WebGL).

§ Visibility from observer

Set your observer location to see the next 7 days of passes ≥ 10°. The values pass through the URL so the page stays shareable.

No JS? Fill the form by hand. The geolocation button needs JavaScript.